Location: *
(48.6192°S, 170.6548°W)
Time: 01:17:57
(UTC+00:00)

Daily predictions for brighter satellites

Satellite Brightness Start Highest point End
(mag) Time Altitude Azimuth Time Altitude Azimuth Time Altitude Azimuth
CZ-2C R/B 3.2 06:12:06 10° SSE 06:15:21 32° E 06:18:32 10° NNE
Helios 1B rocket 3.7 06:13:48 10° SE 06:16:43 20° E 06:19:35 10° NE
Cosmos 1953 2.3 06:16:23 10° S 06:20:22 85° ESE 06:24:18 10° N
USA 215 3.7 06:14:10 10° E 06:20:38 58° SSE 06:27:06 10° SW
Cosmos 1023 Rocket 4.5 06:16:04 10° SSW 06:21:16 83° ESE 06:26:26 10° NNE
Cosmos 1455 2.5 06:18:28 10° SSW 06:21:51 60° W 06:25:10 10° N
Meteor 1-16 Rocket 4.5 06:16:46 10° SSW 06:22:13 71° W 06:27:31 10° N
Cosmos 1656 Rocket 4.2 06:19:21 10° NW 06:24:45 63° WSW 06:30:14 10° SSE
CZ-4 R/B 4.4 06:21:16 10° SSE 06:25:25 63° ENE 06:29:30 10° N
Cosmos 2228 Rocket 3.9 06:25:26 10° NNW 06:29:48 58° WSW 06:34:14 10° S
Landsat 7 4.1 06:26:10 10° SSE 06:30:46 46° E 06:35:19 10° N
Cosmos 1703 4.4 06:28:04 10° NE 06:30:56 21° E 06:33:50 10° SE
ACS3 Solar Sail 3.4 06:27:18 10° SE 06:31:02 16° E 06:34:47 10° ENE
USA 308 3.5 06:29:30 10° WSW 06:33:20 46° NW 06:37:07 10° NE
CZ-4B R/B 3.8 06:30:35 10° SSE 06:34:45 70° ENE 06:38:43 10° N
Cosmos 1862 Rocket 4.3 06:33:17 10° NNW 06:37:37 57° WSW 06:41:58 10° S
Cosmos 1300 Rocket 4.3 06:34:34 10° S 06:38:42 34° ESE 06:42:42 10° NE
Cosmos 2315 Rocket 4.4 06:34:05 10° S 06:40:07 44° ESE 06:46:03 10° NE
ARGOS Delta rocket 4.5 06:35:50 10° SSE 06:40:44 38° E 06:45:19 10° NNE
Cosmos 1833 4.4 06:35:11 10° SSW 06:40:53 78° WNW 06:46:33 10° NNE
USA 305 1.4 06:40:19 10° NW 06:42:01 41° NE 06:44:01 12° ESE
S3M 4.0 06:37:45 10° S 06:43:55 63° ESE 06:50:02 10° NNE
Meteor 1-31 Rocket 2.7 06:41:49 10° SSE 06:45:35 83° WSW 06:49:15 10° NNW
USA 276 1.2 06:43:53 10° WSW 06:46:20 84° SSE 06:47:41 21° ENE
Cosmos 2369 Rocket 2.9 06:43:47 10° NW 06:49:20 60° WSW 06:54:57 10° SSE
BlueWalker 3 2.4 06:46:36 10° WSW 06:50:23 53° SSE 06:53:21 15° E
Cosmos 1703 Rocket 3.5 06:48:36 10° N 06:52:56 70° E 06:57:22 10° SSE
Okean 1-7 3.7 06:57:55 10° NNW 07:02:05 57° WSW 07:06:21 10° S
Cosmos 1190 Rocket 4.1 06:56:56 10° SSW 07:02:10 62° ESE 07:06:16 16° NE
CZ-4C R/B 3.7 07:02:25 22° ENE 07:04:08 36° ESE 07:07:20 10° S
RESURS DK-1 3.4 07:05:15 21° NE 07:06:08 23° ENE 07:09:22 10° SE
Cosmos 2266 Rocket 3.9 07:03:24 10° N 07:09:39 84° E 07:15:52 10° S
CZ-4 R/B 2.2 07:07:34 10° SE 07:10:56 27° E 07:11:47 25° ENE
Cosmos 44 3.9 07:06:21 10° SW 07:11:33 60° WNW 07:16:12 13° NNE
YAOGAN 3 4.5 07:08:20 10° SSE 07:12:44 85° ENE 07:17:03 10° NNW
Meteor 1-24 Rocket 4.0 07:09:41 10° NNE 07:14:47 44° E 07:20:04 10° SSE
Cosmos 2242 Rocket 4.0 07:11:52 16° NNE 07:15:02 40° E 07:19:14 10° SSE
USA 306 2.2 07:12:27 10° NW 07:16:07 69° NNE 07:17:58 23° ESE
ADEOS 3.9 07:11:57 10° SSE 07:17:01 44° E 07:22:01 10° N
SL-24 R/B - RUBIN 2 3.9 07:16:09 10° N 07:20:04 36° ENE 07:23:58 10° SE
SJ-6B 2.8 07:16:27 10° SSE 07:20:05 50° E 07:22:23 20° N
SL-08 ROCKET BODY 4.5 07:14:33 10° NNW 07:20:27 80° W 07:26:30 10° S
Meteor 2-5 Rocket 3.9 07:16:04 10° NNE 07:21:24 49° E 07:26:49 10° SSE
CARTOSAT-1 4.3 07:19:15 10° SSE 07:23:06 30° E 07:23:44 28° ENE
Cosmos 1371 Rocket 4.2 07:18:14 10° N 07:23:25 51° ENE 07:28:39 10° SSE
Cosmos 676 Rocket 4.1 07:19:10 10° SSW 07:24:21 59° ESE 07:27:08 27° NE
Cosmos 1624 Rocket 4.1 07:19:23 10° N 07:24:26 50° ENE 07:29:33 10° SSE
Cosmos 2227 Rocket 3.6 07:21:17 10° S 07:25:59 25° SE 07:28:41 18° E
Cosmos 2251 Rocket 4.0 07:20:42 10° SSW 07:26:02 61° WNW 07:30:55 12° N
CZ-4B R/B 4.1 07:21:45 10° SE 07:26:30 27° E 07:27:34 26° ENE
Cosmos 1954 Rocket 3.9 07:22:43 10° SSW 07:27:58 76° ESE 07:31:01 25° NNE
ATLAS CENTAUR R/B 4.1 07:20:02 10° WSW 07:29:51 64° SSE 07:36:03 21° E
Cosmos 2297 Rocket 2.8 07:25:03 10° SSW 07:30:30 43° SE 07:33:08 27° ENE
Resurs 01 Rocket 2.2 07:30:30 10° SSE 07:34:44 38° E 07:35:34 34° ENE
USA 59 Rocket 3.5 07:25:29 10° WSW 07:35:01 36° S 07:44:02 10° SE
CZ-4B DEB 4.3 07:32:30 10° SSE 07:38:03 55° E 07:42:22 16° N
USA 186 2.8 07:36:39 10° SSE 07:38:51 31° ESE 07:38:51 31° ESE
YAOGAN 1 3.7 07:37:11 10° S 07:41:22 45° WSW 07:45:30 10° NW
Meteor PRIRODA 3.2 07:42:18 10° SSE 07:45:41 82° ENE 07:46:22 53° N
ATLAS 3B R/B 4.2 07:44:43 10° SW 07:49:39 23° SSE 07:54:29 10° ESE
Meteor 2-20 Rocket 4.4 07:44:28 10° SSW 07:50:20 78° W 07:54:47 19° N
PAYLOAD B 4.3 07:44:48 10° SSE 07:50:22 54° E 07:53:08 29° NNE
Helios 1B rocket 3.6 07:47:23 10° S 07:51:06 40° WSW 07:54:45 10° NW
CSL-04 Rocket 4.0 07:48:23 10° SSE 07:53:36 42° E 07:54:31 39° ENE
SPOT 1/Viking Rocket 3.7 07:52:23 10° S 07:57:40 74° WSW 08:02:51 10° NNW
Cosmos 1420 Rocket 4.4 07:54:42 10° NNW 08:00:01 67° WSW 08:05:23 10° SSE
Okean 2 Rocket 3.4 07:56:01 10° S 08:00:22 47° ESE 08:00:36 47° E
Cosmos 2056 Rocket 3.5 07:55:37 10° NNW 08:00:59 83° WSW 08:06:19 10° SSE
Okean O Rocket 2.7 07:59:09 10° SSE 08:02:15 31° ESE 08:02:15 31° ESE
USA 215 3.4 08:00:29 34° NNE 08:03:34 68° NW 08:10:12 10° WSW
Cosmos 1825 2.0 08:05:45 70° WSW 08:05:45 70° WSW 08:08:59 10° S
Cosmos 2263 Rocket 3.6 08:07:08 10° S 08:11:43 25° SE 08:13:13 22° ESE
USA 305 4.5 08:11:09 10° W 08:11:53 17° WSW 08:11:53 17° WSW
ACS3 Solar Sail 1.8 08:09:27 10° SSE 08:15:54 82° ENE 08:20:00 24° N
Cosmos 1892 3.1 08:17:19 51° W 08:17:33 52° WSW 08:21:00 10° S
Terra 4.0 08:15:46 10° SE 08:16:41 13° SE 08:16:41 13° SE
Cosmos 1674 Rocket 3.7 08:21:33 61° ESE 08:21:33 61° ESE 08:25:35 10° SSE
SL-12 R/B(2) 4.2 08:12:14 10° SW 08:21:12 70° SE 08:24:19 40° ENE
Cosmos 2221 Rocket 4.0 08:22:00 51° ESE 08:22:00 51° ESE 08:25:52 10° SSE
Nadezhda 1 Rocket 4.0 08:17:04 10° S 08:23:14 64° ESE 08:24:32 52° NE
CZ-4B R/B 3.4 08:21:28 10° S 08:25:17 56° WSW 08:26:16 43° WNW
Cosmos 2151 Rocket 3.5 08:20:46 10° S 08:25:24 87° W 08:25:42 78° N
CZ-4B R/B 4.1 08:23:19 10° S 08:27:59 51° WSW 08:32:11 13° NW
Okean 1 Rocket 3.3 08:23:44 10° S 08:27:46 58° SE 08:27:46 58° SE
BlueWalker 3 3.0 08:24:41 10° WSW 08:27:32 39° WNW 08:27:32 39° WNW
Cosmos 1331 Rocket 4.4 08:29:39 45° ESE 08:29:39 45° ESE 08:33:43 10° SSE
Sich 1 Rocket 3.5 08:26:18 10° S 08:30:59 90° WSW 08:31:04 86° N
NOSS 3-1 (A) 4.4 08:25:03 10° SW 08:31:45 40° SSE 08:33:52 31° ESE
IRIDIUM 106 4.3 08:26:45 10° S 08:32:03 64° E 08:32:13 64° E
SJ 16-02 1.8 08:28:15 10° SSW 08:32:06 52° SE 08:32:06 52° SE
CSL-04 Debris 4.1 08:27:35 10° SSE 08:33:11 90° ENE 08:34:51 48° NNW
SPOT 5 3.7 08:33:03 10° SSE 08:36:22 36° SE 08:36:22 36° SE
Cosmos 1386 Rocket 4.3 08:37:14 58° NNE 08:38:26 76° E 08:44:38 10° SSE
Feng Yun 1-1 Rocket 4.3 08:33:14 10° SSE 08:39:00 88° WSW 08:40:55 46° NNW
Cosmos 1378 Rocket 3.7 08:39:52 68° W 08:39:55 68° W 08:44:20 10° S
Cosmos 1455 Rocket 4.3 08:36:22 10° S 08:39:17 31° SE 08:39:17 31° SE
RESURS DK-1 3.5 08:40:19 14° WNW 08:43:33 41° SW 08:47:28 10° SSE
ASTEX 1 4.2 08:39:06 10° SSE 08:42:44 38° SE 08:42:44 38° SE
ATLAS 2AS CENTAUR R/B 4.1 08:47:52 22° ESE 08:47:52 22° ESE 08:50:48 10° SE
CZ-4 R/B 3.2 08:41:59 10° S 08:45:23 29° WSW 08:47:14 20° WNW
Cosmos 2285 Rocket 4.2 08:39:12 10° SSW 08:45:40 69° WNW 08:47:16 50° NNW
Cosmos 1980 Rocket 4.0 08:50:23 18° ESE 08:50:23 18° ESE 08:52:08 10° SE
NOSS 3-1 (C) 3.3 08:40:45 10° SW 08:47:39 73° SE 08:48:20 65° E
Cosmos 1656 4.0 08:46:36 11° NW 08:51:42 60° WSW 08:57:10 10° SSE
Cosmos 1741 Rocket 4.1 08:48:26 10° SSW 08:53:47 70° WNW 08:53:56 69° WNW
Cosmos 2219 3.6 08:48:38 10° SSW 08:54:09 49° SE 08:54:18 49° ESE
Cosmos 1850 Rocket 4.2 08:53:08 10° SSW 08:58:21 61° WNW 08:58:28 61° WNW
BREEZE-M DEB (TANK) 3.9 08:42:27 10° W 09:04:35 90° S 09:06:37 53° ENE
CZ-4B R/B 3.9 09:01:52 10° S 09:07:19 52° WSW 09:09:26 34° WNW
Okean-O 3.6 09:03:09 10° SSE 09:06:10 42° SSE 09:06:10 42° SSE
Cosmos 968 Rocket 3.8 09:03:40 10° SSW 09:08:41 61° W 09:08:41 61° W
Cosmos 2227 Rocket 2.2 09:04:54 10° SSW 09:10:29 73° W 09:10:29 73° W
Resurs 01 Rocket 3.5 09:07:11 10° S 09:11:00 28° WSW 09:13:02 20° WNW
In-Cosmos 22 Rocket 4.5 09:12:15 56° SE 09:12:15 56° SE 09:16:36 10° SSE
Cosmos 2360 4.4 09:10:47 56° WNW 09:11:54 70° WSW 09:17:40 10° SSE
MOS 1 Rocket 3.7 09:07:09 10° SSE 09:11:29 67° S 09:11:29 67° S
Meteor 1-21 Rocket 4.2 09:13:59 82° SSW 09:13:59 82° SSW 09:19:33 10° S
Cosmos 1110 Rocket 4.3 09:13:54 63° W 09:14:10 64° WSW 09:19:30 10° SSE
Cosmos 2297 Rocket 3.2 09:09:17 10° SW 09:14:28 37° WNW 09:14:55 36° WNW
ATLAS CENTAUR R/B 3.6 09:07:34 10° SW 09:17:05 66° NW 09:18:27 58° N
Cosmos 1697 Rocket 2.9 09:19:11 66° SSE 09:19:11 66° SSE 09:24:04 10° SSE
CZ-2C R/B 4.5 09:19:24 52° SW 09:19:24 52° SW 09:23:19 10° SSW
MetOp-B 4.3 09:16:30 10° SSE 09:21:15 68° S 09:21:15 68° S
Cosmos 1745 Rocket 4.3 09:22:25 54° WNW 09:23:32 63° WSW 09:29:44 10° S
Cosmos 1844 Rocket 4.4 09:19:55 10° S 09:24:10 21° SE 09:25:02 21° SE
USA 59 Rocket 3.1 09:18:19 10° SW 09:28:00 39° SSE 09:35:35 13° E
Lacrosse 4 Rocket 3.9 09:28:33 10° S 09:30:16 15° SSE 09:30:16 15° SSE
MOS 1 4.5 09:26:38 10° S 09:32:24 68° WSW 09:32:28 68° WSW
ERS-1 Rocket 3.7 09:28:12 10° SSE 09:31:51 47° SSE 09:31:51 47° SSE
Cosmos 1452 Rocket 4.4 09:36:31 44° WSW 09:37:00 46° WSW 09:42:08 10° SSE
Okean O Rocket 3.3 09:35:33 10° S 09:39:28 30° WSW 09:39:34 30° WSW
ATLAS 3B R/B 2.8 09:35:31 10° SW 09:41:39 55° SE 09:41:43 55° SE
Cosmos 2263 Rocket 2.8 09:50:35 10° SSW 09:54:54 53° SW 09:54:54 53° SW
Terra 3.1 09:52:16 10° S 09:55:22 38° S 09:55:22 38° S
ACS3 Solar Sail 3.9 09:54:23 10° S 09:59:07 22° WSW 10:03:52 10° WNW
H-2A R/B 4.5 10:01:15 17° SSE 10:01:15 17° SSE 10:02:36 10° S
SJ 16-02 3.9 10:07:31 10° SW 10:08:49 15° WSW 10:08:49 15° WSW
Nadezhda 3 Rocket 4.4 10:05:21 10° S 10:10:34 58° SSE 10:10:34 58° SSE
Cosmos 2184 Rocket 4.4 10:13:06 58° SSE 10:13:06 58° SSE 10:18:08 10° SSE
NOSS 3-1 (A) 4.2 10:16:31 10° SW 10:21:15 43° WSW 10:21:15 43° WSW
Cosmos 1980 Rocket 3.0 10:32:05 48° SSW 10:32:05 48° SSW 10:36:40 10° SSE
ATLAS 2AS CENTAUR R/B 2.9 10:35:12 70° SW 10:35:12 70° SW 10:42:20 10° SE
Cosmos 2074 Rocket 4.5 10:44:10 57° SW 10:44:10 57° SW 10:49:37 10° S
SL-16 R/B 3.6 10:51:37 31° SE 10:51:37 31° SE 10:54:38 10° SE
Cosmos 1844 Rocket 3.8 11:03:10 10° SSW 11:06:39 39° SSW 11:06:39 39° SSW
Lacrosse 4 Rocket 4.4 11:05:46 10° SSW 11:06:04 12° SSW 11:06:04 12° SSW
Resurs 1-4 Rocket 3.9 11:11:04 25° ESE 11:11:04 25° ESE 11:15:14 10° S
USA 229 DEB 4.2 11:06:22 10° SW 11:11:15 50° SW 11:11:15 50° SW
USA 229 4.2 11:07:31 10° SW 11:12:25 50° SW 11:12:25 50° SW
Cosmos 2219 Rocket 4.1 11:20:49 21° ESE 11:20:49 21° ESE 11:23:17 10° SE
Cosmos 2360 Rocket 3.6 11:21:26 32° SE 11:21:26 32° SE 11:24:37 10° SE
USA 59 Rocket 1.9 11:09:38 10° SW 11:19:55 71° SE 11:21:50 57° E
ATLAS 3B R/B 4.1 11:26:27 10° SW 11:28:57 23° WSW 11:28:57 23° WSW
Cosmos 2278 Rocket 4.4 11:30:56 10° S 11:35:13 21° SE 11:38:59 12° E
IDEFIX/ARIANE 42P 3.7 11:43:34 41° SSE 11:43:34 41° SSE 11:47:08 10° S
CZ-2D R/B 3.3 11:48:29 39° SE 11:48:29 39° SE 11:52:29 10° S
Cosmos 2333 Rocket 3.1 11:51:33 46° SE 11:51:33 46° SE 11:55:34 10° SSE
Cosmos 2322 Rocket 3.0 11:51:39 48° SSE 11:51:39 48° SSE 11:55:42 10° SSE
Cosmos 1727 Rocket 4.3 11:45:01 10° S 11:50:23 62° SSE 11:50:23 62° SSE
